Location: Arleux
(50.3632°N, 2.8721°E)
Time: 04:33:02
(UTC+00:00)

Cosmos 2297 Rocket - Pass Details

Date: 15 December 2019
Orbit: 838 x 845 km, 71.0° (Epoch: 22 January)

Event Time Altitude Azimuth Distance (km) Brightness Sun altitude
Exits shadow 05:52:07 10° 338° (NNW) 2,457 4.3 -16.4°
Maximum altitude 05:52:43 10° 344° (NNW) 2,447 4.3 -16.3°
Drops below altitude 10° 05:53:36 10° 353° (N) 2,472 4.4 -16.1°
Sets 05:58:52 0° 34° (NE) 3,411 5.6 -15.3°
